Location: ????????
(55.4095°N, 38.7184°E)
Time: 08:10:35
(UTC+00:00)

Daily predictions for brighter satellites

Satellite Brightness Start Highest point End
(mag) Time Altitude Azimuth Time Altitude Azimuth Time Altitude Azimuth
NOSS 3-2 (A) 3.4 13:29:07 10° SSW 13:34:15 65° SE 13:40:32 10° NE
Cosmos 2082 4.4 13:31:10 10° NNW 13:36:19 33° NE 13:41:29 10° E
IRS-1D 4.1 13:31:36 10° S 13:36:28 62° WSW 13:41:24 10° NNW
NOSS 3-2 (C) 4.0 13:34:03 10° S 13:38:42 35° ESE 13:44:12 10° ENE
Cosmos 2297 Rocket 2.7 13:34:18 10° NW 13:39:58 69° WSW 13:45:35 10° SSE
Cosmos 2034 Rocket 4.4 13:34:41 10° SSW 13:41:01 71° WNW 13:47:25 10° N
Cosmos 2266 Rocket 4.2 13:35:17 10° N 13:41:17 50° ENE 13:47:09 10° SE
ACS3 Solar Sail 4.4 13:39:04 10° W 13:41:27 12° WNW 13:43:50 10° NW
Cosmos 1626 Rocket 3.5 13:37:28 10° NNW 13:41:50 88° E 13:46:08 10° S
Meteor 1-20 Rocket 4.3 13:36:27 10° N 13:41:51 55° ENE 13:47:12 10° SSE
Cosmos 1356 Rocket 3.5 13:39:37 10° SSW 13:43:42 82° WNW 13:47:50 10° NNE
Cosmos 2228 3.0 13:40:18 10° S 13:44:32 81° E 13:48:49 10° NNE
SJ 16-02 3.8 13:46:31 10° NW 13:47:23 10° NNW 13:48:16 10° NNW
Cosmos 2084 4.0 13:44:16 10° W 13:48:18 45° NNW 13:52:17 10° NE
Cosmos 44 Rocket 4.2 13:45:12 10° NW 13:49:49 33° NNE 13:54:30 10° E
Iridium 51 3.7 13:47:19 10° S 13:50:29 83° E 13:53:44 10° N
JB-3 4.2 13:49:17 10° NNE 13:52:55 58° E 13:56:30 10° S
Cosmos 1315 Rocket 3.2 13:50:17 10° SSW 13:54:05 60° WNW 13:57:53 10° N
IGS 5A 3.4 13:50:34 10° SSE 13:54:27 57° ENE 13:58:23 10° N
CZ-4C R/B 3.5 13:49:18 10° NW 13:55:54 63° SW 14:04:10 10° SSE
Cosmos 1461 3.3 13:52:38 10° SSW 13:56:20 42° SE 13:59:53 11° ENE
Cosmos 2151 2.9 13:52:29 10° N 13:56:39 69° ENE 14:00:49 10° SSE
Cosmos 1867 4.3 13:52:41 10° NW 13:58:04 60° SW 14:03:25 10° SSE
ARIANE 5 R/B 2.9 13:54:05 10° SE 13:58:51 42° ENE 14:03:43 10° N
Cosmos 1844 Rocket 3.7 13:55:56 10° NNW 14:00:41 26° NNE 14:05:25 10° E
USA 290 4.3 13:58:20 10° NW 14:01:19 33° WSW 14:04:17 10° S
CORIOLIS 4.2 13:58:47 10° SE 14:04:00 59° ENE 14:09:16 10° N
Cosmos 1544 Rocket 3.5 13:59:44 10° S 14:04:09 75° E 14:08:36 10° NNE
Cosmos 2219 3.4 13:58:52 10° NNW 14:04:27 49° NE 14:10:02 10° ESE
CENTAUR R/B 3.0 14:00:10 10° WSW 14:06:18 64° NNW 14:13:39 12° NE
Cosmos 1980 Rocket 3.5 14:03:01 10° SSE 14:07:06 21° ESE 14:10:31 12° ENE
Cosmos 2263 Rocket 2.2 14:04:20 10° NNW 14:10:00 68° NE 14:15:40 10° SE
IRS-1C 4.3 14:06:25 10° SE 14:11:33 51° ENE 14:16:43 10° N
UNK 4.5 14:08:19 10° NNE 14:12:29 33° E 14:16:35 10° SSE
Meteor 1-28 Rocket 3.3 14:12:41 10° NNE 14:15:55 44° E 14:19:07 10° S
Cosmos 1726 Rocket 4.5 14:12:43 10° SSE 14:16:45 31° E 14:20:44 10° NNE
CBERS-1 4.1 14:12:32 10° SSE 14:17:40 82° WSW 14:22:48 10° NNW
Cosmos 1943 Rocket 4.0 14:15:30 10° NW 14:18:51 16° N 14:22:04 10° NE
Meteor 1-5 Rocket 4.2 14:14:09 10° N 14:19:26 57° ENE 14:24:50 10° SSE
NOSS 2-2 (D) 2.7 14:18:14 10° WSW 14:21:21 70° NW 14:23:28 18° NE
Cosmos 1602 Rocket 3.9 14:17:14 10° NNW 14:21:37 71° W 14:25:56 10° S
CZ-2D R/B 4.5 14:20:41 10° ESE 14:24:03 24° ENE 14:27:22 10° N
CZ-2D R/B 3.0 14:21:38 10° SE 14:24:37 41° ENE 14:27:38 10° N
Cosmos 1782 2.9 14:22:04 10° SSW 14:25:38 65° WNW 14:29:13 10° N
SPOT 1/Viking Rocket 4.0 14:21:09 10° SE 14:25:53 37° ENE 14:30:38 10° N
SAR-Lupe-4 3.7 14:23:34 10° SE 14:27:01 50° ENE 14:30:29 10° N
AQUARIUS 4.3 14:22:59 10° SE 14:27:13 48° ENE 14:31:29 10° N
Cosmos 1538 Rocket 4.0 14:22:12 10° NNW 14:27:30 71° ENE 14:32:49 10° SE
NOSS 2-3 (E) 4.4 14:24:33 10° S 14:27:39 26° ESE 14:29:28 18° E
YAOGAN 1 3.6 14:24:28 10° ESE 14:27:53 24° ENE 14:31:18 10° N
Meteor 1-25 Rocket 4.3 14:24:19 10° NNW 14:30:11 88° WSW 14:35:57 10° S
Cosmos 2227 Rocket 2.8 14:26:09 10° NW 14:31:45 63° WSW 14:37:18 10° SSE
Okean 1-7 Rocket 3.7 14:29:14 10° NNW 14:33:38 77° W 14:37:59 10° S
SL-16 R/B 2.5 14:28:43 10° NNE 14:35:00 84° ESE 14:41:12 10° SSW
Cosmos 2369 Rocket 3.9 14:32:54 10° WNW 14:37:22 23° NNW 14:41:53 10° NNE
Cosmos 1933 3.2 14:34:23 10° S 14:38:10 61° E 14:41:44 11° NNE
Cosmos 1743 4.4 14:36:35 10° NNW 14:39:28 29° W 14:42:19 10° SSW
Cosmos 1503 Rocket 3.9 14:34:33 10° SSW 14:39:47 84° ESE 14:44:30 13° NNE
USA 238 DEB 4.3 14:34:43 10° S 14:40:13 35° ESE 14:44:05 19° ENE
MOS 1 Rocket 3.5 14:35:12 10° SSE 14:40:13 63° ENE 14:45:28 10° N
USA 238 4.3 14:34:50 10° S 14:40:20 35° ESE 14:44:11 19° ENE
SAR-Lupe-1 4.0 14:36:54 10° SSE 14:40:28 61° ENE 14:44:03 10° N
SMAP 3.1 14:36:35 10° SSE 14:41:14 84° WSW 14:45:56 10° NNW
Lacrosse 4 Rocket 3.1 14:39:32 10° WNW 14:42:40 22° NNW 14:45:13 13° NNE
PSLV R/B 4.3 14:40:53 13° ESE 14:43:46 26° ENE 14:47:12 10° N
Landsat 7 3.7 14:40:24 10° SSE 14:45:03 86° ENE 14:49:46 10° NNW
USA 215 3.3 14:40:15 18° ENE 14:45:24 81° N 14:52:00 10° W
Cosmos 1697 Rocket 2.7 14:40:01 10° SSW 14:45:34 67° ESE 14:49:54 17° NE
Cosmos 1953 Rocket 3.5 14:42:17 10° N 14:46:45 70° ENE 14:51:12 10° SSE
Lacrosse 5 rocket 1.0 14:43:38 10° W 14:47:21 67° N 14:49:01 29° ENE
Thor Agena Rocket 4.0 14:43:30 10° S 14:48:39 64° WSW 14:53:45 10° NNW
COSMO-SKYMED 1 4.5 14:51:25 13° ESE 14:51:25 13° ESE 14:52:11 10° SE
NOSS 2-2 (E) 3.1 14:46:54 10° WSW 14:49:55 51° NNW 14:51:12 28° NNE
Cosmos 1656 4.2 14:45:25 10° SW 14:51:00 56° NW 14:55:57 13° NNE
Cosmos 2360 4.5 14:45:28 10° SW 14:51:11 69° NW 14:56:03 15° NNE
Cosmos 1354 Rocket 3.9 14:46:11 10° SSW 14:51:26 77° ESE 14:55:39 16° NNE
Cosmos 1777 Rocket 4.2 14:46:28 10° SW 14:51:43 73° WNW 14:56:25 13° NNE
SJ-12 3.6 14:48:19 10° SSE 14:52:06 86° E 14:55:56 10° NNW
Cosmos 2278 Rocket 3.9 14:48:57 10° NW 14:52:34 17° N 14:54:34 14° NNE
BREEZE-M DEB (TANK) 4.4 14:50:20 10° WSW 14:53:25 42° S 15:02:01 10° ESE
Cosmos 1825 Rocket 3.9 14:49:37 10° NNW 14:53:57 66° W 14:58:13 10° S
Cosmos 1076 Rocket 3.4 14:51:33 10° NNW 14:55:53 89° ENE 15:00:13 10° S
Cosmos 1898 Rocket 4.2 14:53:13 10° SSE 14:57:45 32° ESE 14:59:22 27° ENE
NOSS 2-2 (C) 4.0 14:55:30 10° W 14:58:10 28° NNW 14:59:06 24° NNE
ERS-1 4.4 14:54:28 10° SSE 14:59:28 89° WSW 15:04:27 10° NNW
Spot 4 Rocket 4.2 14:55:08 10° SE 15:00:02 49° ENE 15:04:58 10° N
Cosmos 2112 Rocket 4.3 14:55:02 10° NNW 15:00:02 44° NE 15:04:01 16° ESE
IRS-P3 4.0 14:55:14 10° SSE 15:00:34 83° ENE 15:05:55 10° NNW
Cosmos 2098 Rocket 4.4 14:58:42 10° SW 15:03:11 46° WNW 15:08:22 10° N
Cosmos 1805 2.8 15:02:18 10° N 15:05:39 59° ENE 15:08:58 10° SSE
Cosmos 1655 Rocket 4.1 15:01:44 10° NNW 15:08:00 83° W 15:14:13 10° S
Cosmos 923 Rocket 3.9 15:03:38 10° NNW 15:08:52 71° ENE 15:14:02 10° SE
Radarsat Rocket 4.4 15:01:58 10° SE 15:09:36 62° ENE 15:16:22 10° NNW
Cosmos 1937 Rocket 4.1 15:07:18 10° SSE 15:11:49 32° ESE 15:12:17 31° E
Cosmos 990 Rocket 3.9 15:09:04 10° SSW 15:14:13 86° WNW 15:17:45 21° NNE
Cosmos 1844 3.8 15:09:25 10° NNW 15:14:54 49° NE 15:17:29 29° ESE
GEOS 3 Rocket 4.0 15:12:45 31° ENE 15:15:05 51° SE 15:20:18 10° SSW
Resurs 01 Rocket 3.2 15:18:08 20° NNE 15:18:08 20° NNE 15:19:51 10° N
Cosmos 494 Rocket 4.1 15:15:06 10° NNW 15:20:16 52° NE 15:22:41 29° ESE
Cosmos 2082 3.9 15:15:14 10° NW 15:20:57 77° WSW 15:26:40 10° SSE
Meteor 2-11 Rocket 4.4 15:14:55 10° N 15:21:01 57° ENE 15:27:04 10° SSE
Gbstr 26 Del rocket 3.4 15:18:25 10° WSW 15:22:10 40° SSE 15:22:51 37° SE
SJ-7 4.1 15:23:14 44° SE 15:24:10 61° ENE 15:27:55 10° N
NOSS 3-2 (A) 3.9 15:19:51 10° W 15:25:17 52° NNW 15:28:38 28° NE
Cosmos 2058 Rocket 3.0 15:23:40 10° S 15:28:06 67° E 15:29:48 36° NNE
Cosmos 1048 Rocket 4.5 15:23:56 10° NNW 15:28:55 39° NE 15:29:08 39° NE
NOSS 3-2 (C) 3.4 15:23:41 10° WSW 15:29:04 72° NNW 15:32:13 31° NE
CZ-4 R/B 4.4 15:25:41 10° S 15:29:38 77° WSW 15:33:36 10° NNW
IRAS Rocket 4.1 15:24:57 10° SSE 15:30:24 70° ENE 15:35:52 10° NNW
Cosmos 44 Rocket 3.3 15:26:46 10° NW 15:31:54 79° NE 15:34:02 36° ESE
Cosmos 1606 Rocket 4.4 15:28:02 10° SSW 15:32:20 49° WNW 15:36:36 10° N
Cosmos 2227 4.1 15:27:21 10° NNW 15:33:03 71° NE 15:36:18 26° SE
Cosmos 1461 3.5 15:29:21 10° WSW 15:33:07 43° NNW 15:34:00 36° N
Aureole 1 Rocket 3.5 15:29:02 10° SSW 15:33:57 76° ESE 15:37:03 30° NNE
Meteor 2-9 Rocket 4.3 15:30:55 10° N 15:36:05 45° ENE 15:36:10 45° ENE
SL-16 R/B 3.9 15:32:22 10° SSE 15:34:05 17° SE 15:34:05 17° SE
ARIANE 5 R/B 3.9 15:33:08 10° SSW 15:37:56 41° W 15:42:50 10° NNW
Okean 1 4.1 15:35:44 10° S 15:37:57 35° S 15:37:57 35° S
Cosmos-2242 2.8 15:35:29 10° S 15:39:43 79° E 15:40:30 58° NNE
Cosmos 1680 Rocket 3.4 15:34:55 10° NNW 15:40:11 89° ENE 15:45:16 11° SSE
Cosmos 1844 Rocket 2.6 15:39:46 10° NNW 15:45:28 76° NE 15:47:51 36° SE
Resurs 1-3 3.5 15:42:44 10° SSE 15:47:03 82° WSW 15:51:24 10° NNW
Cosmos 2219 4.3 15:43:10 10° NW 15:48:36 45° WSW 15:54:01 10° S
NOAA 6 3.8 15:44:06 10° SSE 15:49:12 79° ENE 15:54:19 10° NNW
Nadezhda 2 Rocket 4.5 15:43:05 10° NNW 15:49:14 81° W 15:55:20 10° S
Cosmos 1980 Rocket 2.1 15:44:42 10° SSW 15:50:22 89° ESE 15:52:17 44° NE
USA 281 4.0 15:50:37 32° NE 15:50:41 32° NE 15:56:21 10° NNW
Cosmos 2263 Rocket 4.1 15:48:41 10° NW 15:53:33 30° WSW 15:58:25 10° SSW
OceanSat 1 rocket 4.5 15:49:56 10° SSE 15:54:40 88° WSW 15:59:24 10° NNW
Meteor 2-2 Rocket 4.1 15:51:23 10° SSW 15:57:01 89° ESE 16:00:12 27° NNE
Cosmos 1553 Rocket 3.8 15:51:36 10° S 15:57:48 79° E 16:04:09 10° NNE
CENTAUR R/B 3.4 15:51:33 10° WNW 15:58:08 47° N 16:00:45 36° NE
CZ-2D R/B 4.1 15:54:38 10° S 15:58:43 53° W 16:02:45 10° NNW
EO 1 Delta rocket 4.3 15:58:37 58° E 15:58:49 58° ENE 16:05:10 10° N
NOSS 2-3 (C) 3.8 15:57:00 10° SW 15:59:41 52° WSW 15:59:41 52° WSW
COSMOS 2455 3.4 15:55:10 10° S 15:59:48 39° SE 15:59:48 39° SE
Meteor 1-26 Rocket 4.1 15:55:51 10° SSW 16:01:15 84° WNW 16:03:54 32° N
YAOGAN 1 3.1 15:59:15 10° S 16:03:27 57° W 16:07:40 10° NNW
Cosmos 1943 Rocket 3.7 16:00:23 10° NNW 16:03:34 21° N 16:03:34 21° N
Cosmos 1709 Rocket 3.8 15:58:55 10° N 16:05:01 63° ENE 16:05:39 60° ESE
Cosmos 1745 Rocket 3.8 16:03:48 10° N 16:10:02 85° E 16:16:11 10° SSE
Cosmos 2369 3.5 16:04:28 10° SSW 16:10:12 77° ESE 16:10:35 73° E
NOSS 2-3 (D) 4.3 16:12:16 10° WSW 16:15:00 44° W 16:15:00 44° W
SKYMED 2 3.9 16:16:13 62° WNW 16:16:13 62° WNW 16:20:24 10° SSW
NOSS 2-3 (E) 4.4 16:13:37 10° WSW 16:16:17 42° W 16:16:17 42° W
SL-16 R/B 4.2 16:12:50 10° N 16:18:00 28° NW 16:23:09 10° WSW
PSLV R/B 4.4 16:17:07 29° SSW 16:18:47 46° W 16:22:45 10° NNW
Lacrosse 4 Rocket 3.9 16:19:49 10° NNW 16:20:42 12° NNW 16:20:42 12° NNW
Cosmos 2369 Rocket 4.1 16:19:54 10° NW 16:23:31 17° N 16:23:38 17° N
Lacrosse 5 rocket 3.0 16:20:46 10° WNW 16:22:36 27° WNW 16:22:36 27° WNW
COSMO-SKYMED 1 4.4 16:27:44 23° SSW 16:27:44 23° SSW 16:29:19 10° SSW
USA 215 3.1 16:27:35 71° E 16:28:25 85° N 16:35:01 10° WNW
Cosmos 1697 Rocket 3.9 16:24:46 10° WSW 16:29:56 36° NW 16:31:37 30° N
USA 238 DEB 3.6 16:24:17 10° WSW 16:30:36 80° NW 16:31:31 67° NNE
USA 238 3.6 16:24:23 10° SW 16:30:43 80° NW 16:31:37 67° NNE
Cosmos 2278 Rocket 3.8 16:33:42 10° NNW 16:36:24 22° N 16:36:24 22° N
Cosmos 1898 Rocket 4.0 16:34:29 10° SW 16:39:33 54° NW 16:39:34 54° NW
Cosmos 2333 Rocket 4.4 16:35:50 10° S 16:36:34 14° S 16:36:34 14° S
Resurs 01 Rocket 4.0 16:55:31 16° NNW 16:55:31 16° NNW 16:56:30 10° NNW
GEOS 3 Rocket 4.2 16:53:48 54° WNW 16:53:48 54° WNW 16:58:25 10° WSW
Cosmos 1937 Rocket 4.4 16:48:25 10° SW 16:52:24 45° W 16:52:24 45° W
Meteor 1-11 Rocket 4.3 16:50:33 10° NNW 16:55:23 56° NW 16:55:23 56° NW
SL-16 R/B 4.2 17:14:31 10° SW 17:15:59 19° SW 17:15:59 19° SW
Cosmos 1844 Rocket 4.5 17:24:14 10° NW 17:28:51 26° WSW 17:29:34 26° WSW
USA 281 4.3 17:37:29 37° NNW 17:37:29 37° NNW 17:41:13 10° NNW
Cosmos 1980 Rocket 3.9 17:30:08 10° W 17:34:03 28° NW 17:34:03 28° NW
CENTAUR R/B 3.7 17:42:40 10° NW 17:47:51 47° NNW 17:47:51 47° NNW
